• In Hungary
  • List of Countries
  • For 7 days
  • Water Temperature
  • Satellite Maps
  • Weather Map
  • News
  • Weather Widgets
  • user-avatar
    Login

    Hourly Weather Berat

    Today, 23 September, Saturday

    Time Temperature Precipitation Wind Pressure Humidity
    00:00 +14°C° 0 mm 1 mps 748 mmHg 73%
    01:00 +13°C° 0 mm 1 mps 748 mmHg 71%
    02:00 +13°C° 0 mm 1 mps 748 mmHg 70%
    03:00 +13°C° 0 mm 1 mps 748 mmHg 70%
    04:00 +13°C° 0 mm 1 mps 748 mmHg 70%
    05:00 +14°C° 0 mm 1 mps 748 mmHg 66%
    06:00 +15°C° 0 mm 1 mps 748 mmHg 62%
    07:00 +18°C° 0 mm 1 mps 748 mmHg 58%
    08:00 +20°C° 0 mm 1 mps 748 mmHg 53%
    09:00 +20°C° 0 mm 2 mps 749 mmHg 47%
    10:00 +23°C° 0 mm 2 mps 749 mmHg 42%
    11:00 +24°C° 0 mm 2 mps 748 mmHg 41%
    12:00 +25°C° 0 mm 3 mps 748 mmHg 39%
    13:00 +25°C° 0 mm 3 mps 748 mmHg 38%
    14:00 +25°C° 0 mm 3 mps 748 mmHg 41%
    15:00 +25°C° 0 mm 3 mps 748 mmHg 43%
    16:00 +24°C° 0 mm 3 mps 747 mmHg 46%
    17:00 +21°C° 0 mm 2 mps 747 mmHg 54%
    18:00 +19°C° 0 mm 2 mps 748 mmHg 62%
    19:00 +18°C° 0 mm 1 mps 748 mmHg 71%
    20:00 +18°C° 0 mm 1 mps 748 mmHg 72%
    21:00 +18°C° 0 mm 1 mps 748 mmHg 73%
    22:00 +16°C° 0 mm 1 mps 748 mmHg 74%
    23:00 +16°C° 0 mm 1 mps 748 mmHg 73%

    Tomorrow, 24 September, Sunday

    Time Temperature Precipitation Wind Pressure Humidity
    00:00 +16°C° 0 mm 1 mps 748 mmHg 72%
    01:00 +16°C° 0 mm 1 mps 748 mmHg 71%
    02:00 +16°C° 0 mm 1 mps 747 mmHg 70%
    03:00 +15°C° 0 mm 1 mps 747 mmHg 69%
    04:00 +15°C° 0 mm 1 mps 747 mmHg 68%
    05:00 +16°C° 0 mm 1 mps 747 mmHg 64%
    06:00 +18°C° 0 mm 1 mps 747 mmHg 60%
    07:00 +19°C° 0 mm 1 mps 747 mmHg 56%
    08:00 +21°C° 0 mm 1 mps 747 mmHg 49%
    09:00 +23°C° 0 mm 1 mps 747 mmHg 42%
    10:00 +25°C° 0 mm 1 mps 747 mmHg 35%
    11:00 +26°C° 0 mm 1 mps 747 mmHg 34%
    12:00 +26°C° 0 mm 2 mps 747 mmHg 33%
    13:00 +27°C° 0 mm 2 mps 746 mmHg 32%
    14:00 +26°C° 0 mm 2 mps 746 mmHg 35%
    15:00 +25°C° 0 mm 2 mps 746 mmHg 37%
    16:00 +25°C° 0 mm 2 mps 746 mmHg 40%
    17:00 +23°C° 0 mm 2 mps 746 mmHg 47%
    18:00 +21°C° 0 mm 1 mps 746 mmHg 53%
    19:00 +19°C° 0 mm 1 mps 746 mmHg 60%
    20:00 +19°C° 0 mm 1 mps 746 mmHg 61%
    21:00 +19°C° 0 mm 1 mps 746 mmHg 61%
    22:00 +18°C° 0 mm 1 mps 746 mmHg 62%
    23:00 +18°C° 0 mm 1 mps 746 mmHg 62%

    Day after tomorrow, 25 September, Monday

    Time Temperature Precipitation Wind Pressure Humidity
    00:00 +18°C° 0 mm 1 mps 746 mmHg 62%
    01:00 +18°C° 0 mm 1 mps 746 mmHg 63%
    02:00 +17°C° 0 mm 2 mps 746 mmHg 63%
    03:00 +17°C° 0 mm 2 mps 746 mmHg 63%
    04:00 +17°C° 0 mm 2 mps 745 mmHg 62%
    05:00 +17°C° 0 mm 2 mps 745 mmHg 62%
    06:00 +18°C° 0 mm 2 mps 745 mmHg 61%
    07:00 +19°C° 0 mm 2 mps 745 mmHg 60%
    08:00 +20°C° 0 mm 2 mps 745 mmHg 56%
    09:00 +21°C° 0 mm 2 mps 746 mmHg 51%
    10:00 +24°C° 0 mm 2 mps 746 mmHg 47%
    11:00 +24°C° 0.1 mm 2 mps 746 mmHg 46%
    12:00 +25°C° 0.1 mm 2 mps 746 mmHg 45%
    13:00 +25°C° 0.1 mm 3 mps 746 mmHg 45%
    14:00 +24°C° 0.1 mm 3 mps 745 mmHg 47%
    15:00 +24°C° 0.1 mm 3 mps 745 mmHg 49%
    16:00 +23°C° 0.1 mm 2 mps 745 mmHg 52%
    17:00 +21°C° 0 mm 2 mps 746 mmHg 58%
    18:00 +19°C° 0 mm 2 mps 746 mmHg 65%
    19:00 +18°C° 0 mm 2 mps 746 mmHg 71%
    20:00 +18°C° 0 mm 2 mps 746 mmHg 73%
    21:00 +17°C° 0 mm 2 mps 746 mmHg 75%
    22:00 +17°C° 0 mm 2 mps 746 mmHg 77%
    23:00 +16°C° 0 mm 2 mps 746 mmHg 78%

    26 September, Tuesday

    Time Temperature Precipitation Wind Pressure Humidity
    00:00 +16°C° 0 mm 2 mps 746 mmHg 79%
    01:00 +16°C° 0 mm 2 mps 746 mmHg 79%
    02:00 +16°C° 0 mm 2 mps 746 mmHg 80%
    03:00 +15°C° 0 mm 2 mps 746 mmHg 80%
    04:00 +15°C° 0 mm 2 mps 746 mmHg 81%
    05:00 +16°C° 0 mm 2 mps 746 mmHg 77%
    06:00 +17°C° 0 mm 2 mps 746 mmHg 74%
    07:00 +18°C° 0 mm 2 mps 746 mmHg 71%
    08:00 +21°C° 0 mm 1 mps 746 mmHg 62%
    09:00 +23°C° 0 mm 1 mps 746 mmHg 54%
    10:00 +25°C° 0 mm 1 mps 746 mmHg 45%
    11:00 +26°C° 0.2 mm 1 mps 746 mmHg 44%
    12:00 +26°C° 0.2 mm 2 mps 746 mmHg 42%
    13:00 +27°C° 0.2 mm 2 mps 745 mmHg 41%
    14:00 +26°C° 0.4 mm 3 mps 745 mmHg 44%
    15:00 +25°C° 0.4 mm 3 mps 745 mmHg 47%
    16:00 +25°C° 0.4 mm 3 mps 745 mmHg 50%
    17:00 +23°C° 0.3 mm 2 mps 746 mmHg 57%
    18:00 +20°C° 0.3 mm 2 mps 746 mmHg 64%
    19:00 +20°C° 0.3 mm 1 mps 746 mmHg 70%
    20:00 +19°C° 0.1 mm 1 mps 746 mmHg 71%
    21:00 +19°C° 0.1 mm 1 mps 747 mmHg 72%
    22:00 +19°C° 0.1 mm 1 mps 747 mmHg 74%
    23:00 +19°C° 0 mm 1 mps 747 mmHg 74%

    27 September, Wednesday

    Time Temperature Precipitation Wind Pressure Humidity
    00:00 +18°C° 0 mm 1 mps 747 mmHg 75%
    01:00 +18°C° 0 mm 1 mps 747 mmHg 75%
    02:00 +18°C° 0 mm 1 mps 747 mmHg 76%
    03:00 +18°C° 0 mm 1 mps 747 mmHg 76%
    04:00 +16°C° 0 mm 1 mps 747 mmHg 77%
    05:00 +18°C° 0 mm 1 mps 747 mmHg 74%
    06:00 +19°C° 0 mm 1 mps 747 mmHg 72%
    07:00 +20°C° 0 mm 1 mps 748 mmHg 69%
    08:00 +22°C° 0.1 mm 1 mps 748 mmHg 61%
    09:00 +24°C° 0.1 mm 1 mps 748 mmHg 54%
    10:00 +25°C° 0.1 mm 1 mps 748 mmHg 47%
    11:00 +26°C° 0.2 mm 1 mps 748 mmHg 45%
    12:00 +26°C° 0.2 mm 2 mps 747 mmHg 43%
    13:00 +27°C° 0.2 mm 3 mps 747 mmHg 41%
    14:00 +26°C° 0.2 mm 3 mps 747 mmHg 44%
    15:00 +26°C° 0.2 mm 3 mps 747 mmHg 46%
    16:00 +25°C° 0.2 mm 3 mps 747 mmHg 49%
    17:00 +23°C° 0.1 mm 2 mps 747 mmHg 56%
    18:00 +21°C° 0.1 mm 2 mps 747 mmHg 63%
    19:00 +20°C° 0.1 mm 1 mps 748 mmHg 70%
    20:00 +20°C° 0 mm 1 mps 748 mmHg 71%
    21:00 +19°C° 0 mm 1 mps 748 mmHg 72%
    22:00 +19°C° 0 mm 1 mps 748 mmHg 73%
    23:00 +19°C° 0 mm 1 mps 748 mmHg 73%

    28 September, Thursday

    Time Temperature Precipitation Wind Pressure Humidity
    00:00 +19°C° 0 mm 1 mps 748 mmHg 73%
    01:00 +18°C° 0 mm 1 mps 748 mmHg 73%
    02:00 +18°C° 0 mm 1 mps 748 mmHg 73%
    03:00 +18°C° 0 mm 1 mps 748 mmHg 74%
    04:00 +18°C° 0 mm 1 mps 748 mmHg 74%
    05:00 +17°C° 0 mm 2 mps 748 mmHg 72%
    06:00 +18°C° 0 mm 2 mps 748 mmHg 70%
    07:00 +19°C° 0 mm 2 mps 748 mmHg 67%
    08:00 +22°C° 0.1 mm 1 mps 748 mmHg 60%
    09:00 +24°C° 0.1 mm 1 mps 748 mmHg 53%
    10:00 +26°C° 0.1 mm 1 mps 749 mmHg 46%
    11:00 +26°C° 0.3 mm 2 mps 748 mmHg 45%
    12:00 +26°C° 0.3 mm 2 mps 748 mmHg 43%
    13:00 +27°C° 0.3 mm 3 mps 748 mmHg 42%
    14:00 +26°C° 0.4 mm 3 mps 748 mmHg 44%
    15:00 +26°C° 0.4 mm 3 mps 747 mmHg 47%
    16:00 +25°C° 0.4 mm 3 mps 747 mmHg 50%
    17:00 +24°C° 0.4 mm 3 mps 748 mmHg 56%
    18:00 +21°C° 0.4 mm 2 mps 748 mmHg 62%
    19:00 +20°C° 0.4 mm 2 mps 748 mmHg 69%
    20:00 +19°C° 0.1 mm 2 mps 748 mmHg 70%
    21:00 +19°C° 0.1 mm 2 mps 748 mmHg 71%
    22:00 +18°C° 0.1 mm 2 mps 749 mmHg 72%
    23:00 +18°C° 0 mm 2 mps 748 mmHg 73%
    Show more